Location: Poigny-la-Forêt
(48.6876°N, 1.7701°E)
Time: 09:43:14
(UTC+02:00)

ISS - Pass Details

Date: 24 May 2019
Orbit: 407 x 419 km, 51.6° (Epoch: 26 June)

Event Time Altitude Azimuth Distance (km) Brightness Sun altitude
Rises 00:56:06 0° 288° (WNW) 2,363 0.5 -19.6°
Reaches altitude 10° 00:58:13 10° 291° (WNW) 1,501 -0.5 -19.7°
Maximum altitude 01:01:33 63° 13° (NNE) 474 -3.4 -19.8°
Enters shadow 01:02:40 37° 80° (E) 666 -2.8 -19.9°
